Location: Maiden
(35.5760°N, 81.2120°W)
Time: 09:41:08
(UTC-04:00)

Envisat - Visible Passes

Search period start: 19 August 2018 00:00
Search period end: 29 August 2018 00:00
Orbit: 764 x 766 km, 98.2° (Epoch: 19 August)

Date Brightness Start Highest point End Pass type
(mag) Time Alt. Az. Time Alt. Az. Time Alt. Az.
19 Aug 3.6 20:53:54 10° S 20:58:53 58° W 21:03:54 10° NNW visible
20 Aug 5.8 21:59:11 10° WSW 22:01:33 13° W 22:03:54 10° WNW visible
21 Aug 4.8 21:20:03 10° SSW 21:24:32 31° W 21:29:03 10° NW visible
22 Aug 3.2 20:42:39 10° S 20:47:43 76° WSW 20:52:48 10° NNW visible
23 Aug 5.6 21:46:59 10° SW 21:50:17 17° W 21:53:35 10° NW visible
24 Aug 4.3 21:08:34 10° SSW 21:13:19 40° W 21:18:06 10° NNW visible
25 Aug 3.0 20:31:28 10° SSE 20:36:33 84° ENE 20:41:39 10° N visible
26 Aug 5.3 21:35:07 10° SW 21:39:01 22° W 21:42:57 10° NW visible
27 Aug 3.8 20:57:11 10° S 21:02:07 52° W 21:07:05 10° NNW visible
28 Aug 3.0 20:20:23 10° SSE 20:25:24 66° ENE 20:30:26 10° N visible
28 Aug 5.9 22:03:02 10° WSW 22:04:49 12° W 22:06:36 10° WNW visible
